Temp
-11 -11 -10 -10 -10 -10 -10 -10 -10 -10 -10 -10 -10 -10 -10 -10 -10 -10 -10 -10 -10 -10 -10 -10 -10 -10 -9 -9 -9 -9 -9 -9 -9 -10 -10 -10 -10 -10 -11 -11 -11 -11 -12 -12 -13 -13 -13
-12 -11 -11 -11 -11 -10 -10 -10 -10 -10 -10 -10 -10 -10 -10 -10 -10 -10 -10 -10 -10 -10 -10 -10 -10 -10 -10 -10 -10 -10 -10 -10 -10 -10 -10 -10 -11 -11 -11 -11 -11 -12 -12 -12 -13 -13 -13
-13 -12 -12 -11 -11 -11 -10 -10 -10 -11 -11 -10 -11 -10 -11 -10 -10 -10 -10 -10 -10 -10 -10 -10 -10 -10 -10 -10 -10 -10 -10 -10 -10 -10 -11 -11 -11 -11 -11 -12 -12 -12 -12 -12 -13 -13 -13
-13 -12 -12 -11 -11 -11 -10 -11 -11 -11 -11 -11 -11 -11 -11 -11 -11 -10 -10 -10 -10 -10 -10 -10 -10 -10 -10 -10 -10 -10 -10 -11 -11 -11 -11 -11 -12 -12 -12 -12 -12 -12 -13 -13 -14 -13 -14
-13 -12 -12 -12 -11 -11 -11 -11 -11 -11 -11 -11 -11 -11 -11 -11 -11 -11 -11 -11 -11 -11 -11 -11 -11 -11 -11 -11 -11 -11 -11 -11 -11 -11 -11 -12 -12 -12 -12 -12 -13 -13 -13 -13 -13 -13 -13
-13 -13 -12 -12 -11 -11 -11 -11 -11 -11 -11 -11 -11 -11 -11 -11 -11 -11 -11 -11 -11 -11 -11 -11 -11 -11 -11 -11 -11 -11 -11 -11 -11 -12 -12 -12 -12 -12 -12 -12 -13 -13 -13 -13 -13 -13 -14
-13 -12 -12 -12 -12 -11 -11 -12 -12 -12 -12 -12 -12 -12 -11 -12 -12 -12 -12 -12 -12 -12 -12 -12 -12 -11 -11 -12 -12 -12 -12 -12 -12 -12 -12 -12 -13 -13 -13 -13 -12 -13 -13 -13 -14 -14 -14
-13 -13 -12 -12 -12 -12 -12 -12 -12 -12 -12 -12 -12 -12 -12 -12 -12 -12 -12 -12 -12 -12 -12 -12 -12 -12 -12 -12 -12 -12 -12 -12 -13 -13 -12 -13 -13 -13 -13 -13 -13 -13 -14 -14 -14 -14 -14
-13 -13 -13 -12 -12 -12 -13 -13 -13 -13 -13 -12 -12 -13 -13 -13 -13 -12 -12 -12 -12 -12 -12 -12 -12 -12 -13 -13 -13 -13 -13 -13 -13 -13 -13 -13 -13 -13 -13 -14 -14 -14 -14 -14 -14 -14 -15
-13 -13 -13 -13 -13 -13 -13 -13 -13 -13 -13 -13 -13 -13 -13 -13 -13 -12 -12 -12 -12 -12 -12 -13 -13 -13 -13 -13 -13 -13 -13 -13 -13 -13 -13 -13 -13 -14 -14 -14 -14 -14 -14 -15 -15 -15 -15
-13 -13 -13 -13 -13 -13 -13 -13 -13 -13 -13 -13 -13 -13 -13 -13 -13 -12 -12 -13 -13 -13 -13 -13 -13 -13 -13 -13 -14 -13 -13 -13 -13 -13 -13 -14 -14 -14 -14 -15 -15 -14 -15 -15 -15 -16 -15
-13 -13 -13 -13 -13 -13 -13 -13 -13 -13 -13 -13 -13 -13 -13 -13 -13 -13 -13 -13 -13 -13 -13 -13 -14 -14 -14 -14 -14 -14 -13 -14 -14 -14 -14 -14 -14 -14 -14 -15 -15 -15 -16 -16 -16 -16 -17
-13 -13 -13 -13 -13 -13 -13 -13 -13 -13 -14 -14 -14 -13 -13 -13 -13 -13 -13 -14 -14 -14 -14 -14 -14 -14 -14 -14 -14 -14 -14 -14 -14 -14 -14 -15 -14 -14 -15 -15 -16 -16 -16 -16 -17 -18 -18
-14 -13 -14 -14 -13 -13 -13 -13 -13 -14 -14 -14 -14 -13 -13 -14 -14 -14 -14 -14 -14 -14 -14 -14 -14 -14 -14 -14 -14 -14 -14 -14 -14 -14 -14 -15 -16 -16 -16 -16 -17 -17 -17 -17 -17 -18 -18
-14 -14 -14 -14 -13 -13 -13 -13 -14 -14 -14 -14 -14 -14 -14 -14 -14 -14 -14 -14 -14 -14 -14 -14 -14 -14 -14 -14 -14 -14 -14 -14 -14 -14 -15 -15 -16 -16 -17 -17 -17 -18 -17 -18 -18 -18 -18
-14 -14 -14 -14 -14 -13 -14 -14 -14 -14 -14 -14 -14 -14 -14 -14 -14 -14 -14 -14 -14 -14 -14 -14 -14 -14 -14 -14 -14 -14 -14 -15 -14 -14 -15 -15 -16 -17 -17 -18 -18 -18 -18 -19 -19 -18 -18
-14 -14 -14 -14 -14 -14 -14 -14 -14 -14 -14 -14 -14 -14 -14 -14 -14 -14 -14 -14 -14 -14 -14 -14 -14 -14 -14 -14 -14 -14 -15 -15 -15 -15 -15 -16 -16 -18 -18 -18 -18 -18 -18 -19 -19 -19 -18
-14 -14 -14 -14 -14 -14 -14 -14 -14 -14 -14 -14 -14 -15 -14 -14 -14 -14 -14 -14 -14 -14 -14 -14 -14 -14 -14 -14 -15 -14 -15 -15 -15 -16 -16 -16 -17 -18 -18 -18 -19 -19 -19 -19 -19 -19 -18
-14 -14 -14 -14 -14 -14 -14 -14 -14 -15 -14 -14 -15 -15 -15 -15 -15 -15 -15 -14 -14 -14 -14 -14 -14 -15 -15 -15 -15 -15 -15 -15 -15 -16 -17 -17 -18 -19 -19 -19 -19 -20 -20 -19 -19 -18 -18
-15 -14 -14 -14 -14 -14 -15 -15 -15 -15 -15 -15 -15 -15 -15 -15 -15 -15 -15 -15 -14 -14 -14 -15 -15 -15 -15 -15 -15 -15 -15 -15 -15 -16 -17 -18 -19 -19 -19 -19 -20 -20 -19 -19 -19 -18 -18
-15 -14 -15 -15 -15 -15 -15 -15 -15 -15 -15 -15 -15 -15 -15 -15 -15 -15 -15 -15 -15 -14 -15 -15 -15 -15 -15 -15 -15 -15 -16 -16 -16 -17 -18 -19 -19 -19 -19 -19 -20 -20 -19 -19 -18 -18 -18
-15 -15 -15 -15 -15 -15 -15 -15 -15 -15 -15 -15 -16 -16 -15 -15 -15 -15 -15 -15 -15 -15 -15 -15 -15 -15 -15 -15 -15 -16 -16 -16 -17 -18 -19 -19 -19 -19 -19 -19 -19 -19 -18 -18 -18 -18 -18
-15 -15 -15 -15 -15 -15 -15 -16 -15 -15 -15 -16 -16 -16 -16 -16 -15 -15 -15 -15 -15 -15 -15 -15 -15 -15 -15 -15 -16 -16 -16 -16 -18 -19 -19 -19 -19 -19 -19 -19 -19 -18 -18 -18 -18 -18 -18
-16 -16 -16 -16 -16 -16 -16 -16 -16 -16 -16 -16 -16 -16 -16 -16 -16 -16 -16 -15 -15 -15 -15 -15 -15 -15 -16 -16 -16 -16 -17 -18 -19 -19 -19 -19 -19 -19 -19 -19 -19 -19 -18 -18 -17 -17 -18
-17 -17 -16 -16 -16 -16 -16 -16 -16 -16 -16 -16 -16 -16 -16 -16 -16 -16 -16 -15 -15 -15 -15 -15 -15 -16 -16 -16 -16 -17 -18 -18 -19 -19 -19 -19 -19 -19 -19 -19 -19 -19 -18 -18 -17 -18 -18
-17 -17 -17 -17 -17 -17 -16 -16 -16 -16 -16 -16 -16 -16 -16 -16 -16 -16 -16 -16 -15 -15 -15 -16 -16 -16 -16 -16 -17 -17 -19 -20 -19 -19 -19 -19 -19 -19 -19 -19 -19 -19 -18 -18 -18 -18 -18
-17 -17 -17 -17 -17 -17 -17 -17 -16 -17 -17 -17 -17 -16 -16 -16 -17 -17 -16 -16 -16 -16 -16 -16 -16 -16 -16 -16 -17 -18 -19 -20 -20 -20 -19 -19 -19 -19 -20 -19 -19 -19 -18 -18 -18 -18 -18
-18 -18 -18 -18 -18 -17 -17 -17 -17 -17 -17 -17 -17 -17 -17 -17 -17 -17 -16 -16 -16 -16 -16 -16 -16 -16 -16 -16 -17 -18 -20 -20 -20 -20 -20 -20 -19 -19 -20 -19 -19 -19 -18 -18 -19 -18 -18
-18 -18 -18 -18 -18 -17 -17 -17 -17 -17 -17 -17 -17 -17 -17 -17 -17 -17 -16 -16 -16 -16 -16 -16 -16 -16 -17 -17 -17 -19 -20 -20 -20 -20 -20 -20 -20 -19 -19 -19 -19 -19 -18 -18 -19 -18 -18
Height
5795 5798 5800 5803 5806 5808 5810 5813 5814 5816 5819 5820 5821 5822 5824 5825 5825 5825 5825 5826 5827 5827 5828 5828 5828 5829 5829 5829 5829 5829 5827 5825 5824 5822 5819 5817 5816 5814 5812 5810 5807 5804 5802 5798 5795 5793 5790
5789 5793 5795 5797 5800 5803 5804 5807 5810 5811 5813 5816 5818 5819 5820 5823 5823 5823 5823 5824 5824 5825 5825 5826 5826 5826 5825 5826 5823 5823 5821 5819 5818 5815 5813 5811 5810 5807 5805 5802 5798 5798 5796 5794 5792 5789 5783
5785 5787 5791 5793 5796 5798 5799 5802 5805 5807 5808 5812 5814 5815 5817 5818 5819 5820 5819 5821 5822 5822 5823 5822 5822 5821 5821 5821 5820 5819 5816 5814 5812 5809 5806 5804 5802 5799 5796 5793 5791 5789 5789 5787 5783 5782 5778
5778 5783 5786 5788 5790 5794 5796 5797 5801 5804 5804 5808 5810 5813 5814 5815 5816 5817 5816 5817 5818 5819 5819 5818 5818 5818 5816 5816 5814 5813 5810 5807 5805 5802 5799 5796 5793 5791 5789 5788 5784 5783 5781 5780 5777 5773 5771
5772 5778 5780 5783 5785 5788 5791 5794 5796 5799 5801 5804 5806 5808 5810 5811 5812 5813 5814 5814 5815 5815 5815 5815 5814 5813 5812 5810 5808 5805 5803 5800 5797 5795 5792 5790 5788 5785 5784 5783 5779 5776 5775 5773 5770 5766 5762
5769 5774 5776 5779 5781 5784 5787 5791 5792 5795 5798 5801 5804 5805 5807 5808 5809 5810 5811 5811 5812 5812 5811 5810 5810 5809 5807 5805 5801 5798 5796 5793 5791 5789 5788 5785 5783 5780 5779 5777 5775 5773 5770 5767 5763 5762 5757
5764 5770 5773 5775 5778 5782 5785 5787 5790 5791 5795 5798 5800 5801 5804 5805 5806 5807 5809 5808 5809 5810 5808 5806 5804 5802 5800 5798 5795 5793 5791 5789 5787 5785 5783 5782 5780 5777 5774 5772 5769 5766 5763 5760 5758 5755 5751
5761 5766 5770 5774 5776 5779 5783 5784 5787 5790 5792 5795 5797 5798 5801 5802 5804 5805 5804 5805 5805 5804 5802 5800 5798 5796 5794 5792 5790 5789 5788 5786 5784 5782 5780 5778 5775 5772 5769 5767 5764 5761 5758 5756 5754 5748 5744
5761 5761 5768 5771 5774 5776 5780 5783 5785 5788 5790 5793 5794 5796 5799 5800 5801 5802 5801 5800 5799 5797 5797 5795 5793 5791 5790 5789 5787 5786 5785 5782 5780 5778 5776 5773 5772 5768 5766 5763 5761 5757 5753 5750 5745 5740 5735
5756 5758 5764 5769 5771 5774 5778 5781 5784 5786 5789 5792 5793 5794 5797 5797 5799 5797 5796 5795 5793 5792 5792 5792 5790 5788 5787 5785 5784 5782 5781 5780 5777 5775 5773 5771 5768 5765 5762 5757 5755 5752 5747 5743 5737 5732 5726
5750 5757 5763 5767 5768 5773 5777 5779 5782 5785 5787 5790 5791 5793 5794 5794 5794 5793 5792 5790 5789 5789 5789 5789 5787 5785 5783 5784 5782 5780 5778 5776 5774 5771 5769 5767 5763 5761 5757 5753 5747 5743 5740 5735 5729 5722 5717
5747 5756 5760 5764 5767 5773 5776 5778 5781 5784 5785 5787 5789 5790 5791 5790 5790 5788 5787 5787 5787 5788 5786 5786 5784 5782 5782 5781 5779 5776 5775 5773 5770 5768 5764 5761 5757 5754 5752 5747 5741 5733 5731 5727 5721 5714 5710
5747 5752 5758 5761 5766 5771 5773 5777 5779 5781 5784 5786 5787 5787 5787 5787 5786 5785 5785 5785 5786 5785 5785 5785 5783 5781 5779 5778 5777 5774 5772 5769 5766 5764 5760 5755 5750 5745 5742 5738 5736 5728 5724 5719 5714 5710 5708
5745 5750 5755 5760 5764 5768 5771 5774 5777 5780 5783 5784 5785 5784 5784 5783 5784 5783 5783 5784 5784 5783 5782 5782 5781 5778 5776 5775 5774 5771 5768 5764 5761 5758 5755 5752 5746 5740 5734 5729 5727 5722 5717 5713 5708 5707 5706
5742 5747 5752 5758 5761 5766 5769 5772 5776 5778 5781 5782 5782 5782 5781 5781 5781 5782 5782 5782 5781 5781 5780 5779 5778 5776 5774 5772 5770 5767 5764 5761 5758 5755 5751 5745 5741 5732 5728 5724 5719 5717 5712 5708 5706 5704 5704
5738 5744 5750 5753 5758 5763 5767 5770 5774 5777 5778 5779 5780 5779 5779 5780 5780 5780 5781 5780 5779 5779 5778 5777 5776 5774 5771 5769 5767 5764 5761 5756 5752 5747 5743 5739 5735 5729 5722 5718 5711 5709 5705 5703 5704 5703 5702
5736 5741 5747 5751 5755 5760 5764 5769 5773 5774 5776 5777 5777 5777 5778 5778 5779 5779 5779 5778 5778 5777 5776 5775 5773 5771 5769 5766 5764 5760 5757 5753 5748 5742 5736 5730 5727 5723 5714 5712 5708 5704 5701 5701 5701 5701 5701
5733 5739 5744 5748 5753 5757 5762 5767 5770 5772 5774 5774 5774 5776 5776 5777 5778 5778 5777 5777 5777 5775 5773 5772 5770 5768 5766 5763 5759 5756 5752 5747 5742 5737 5731 5725 5720 5714 5709 5704 5701 5700 5699 5700 5700 5701 5701
5729 5736 5740 5745 5750 5755 5760 5764 5767 5769 5771 5771 5772 5774 5775 5776 5776 5776 5776 5775 5774 5772 5771 5770 5768 5766 5763 5760 5757 5752 5747 5742 5737 5731 5724 5718 5712 5708 5702 5698 5695 5695 5696 5698 5699 5699 5700
5726 5731 5737 5742 5748 5753 5757 5762 5764 5766 5767 5769 5770 5772 5773 5774 5774 5774 5774 5773 5770 5769 5769 5768 5766 5763 5760 5757 5753 5748 5742 5738 5732 5725 5719 5714 5707 5701 5697 5693 5692 5692 5693 5696 5699 5699 5700
5721 5727 5734 5739 5745 5750 5754 5758 5760 5763 5764 5766 5768 5769 5771 5771 5772 5772 5771 5770 5768 5768 5767 5766 5763 5761 5757 5753 5749 5744 5739 5733 5726 5720 5714 5709 5703 5697 5694 5692 5692 5693 5696 5698 5699 5699 5700
5716 5723 5729 5736 5741 5746 5751 5754 5757 5759 5761 5764 5766 5768 5768 5769 5770 5770 5769 5767 5766 5765 5765 5763 5760 5757 5754 5750 5745 5740 5735 5729 5722 5715 5709 5704 5698 5695 5694 5694 5695 5695 5697 5697 5699 5700 5700
5712 5719 5726 5732 5738 5743 5747 5750 5754 5756 5759 5761 5763 5765 5766 5766 5767 5767 5766 5765 5764 5763 5762 5760 5757 5753 5749 5745 5741 5736 5730 5723 5717 5712 5706 5702 5697 5696 5695 5695 5697 5698 5697 5698 5699 5700 5702
5707 5715 5722 5728 5734 5739 5743 5747 5751 5754 5757 5759 5761 5762 5763 5764 5765 5764 5763 5761 5761 5760 5758 5756 5753 5749 5746 5741 5736 5731 5724 5717 5713 5707 5701 5698 5696 5696 5696 5697 5699 5698 5697 5700 5700 5700 5701
5702 5711 5717 5724 5730 5735 5740 5743 5748 5751 5755 5756 5757 5760 5761 5761 5762 5761 5760 5759 5758 5757 5755 5752 5749 5746 5741 5737 5731 5724 5719 5714 5710 5704 5697 5694 5694 5695 5696 5695 5698 5697 5699 5701 5702 5702 5702
5697 5706 5713 5720 5726 5731 5736 5740 5744 5748 5751 5753 5754 5756 5758 5759 5759 5758 5756 5755 5754 5752 5751 5748 5745 5742 5737 5731 5725 5719 5713 5708 5703 5699 5695 5692 5691 5694 5694 5696 5698 5698 5700 5703 5703 5703 5704
5692 5701 5708 5716 5722 5727 5732 5736 5740 5744 5747 5750 5751 5753 5755 5756 5755 5754 5753 5752 5752 5750 5748 5744 5741 5737 5732 5726 5719 5713 5707 5702 5697 5693 5690 5689 5689 5691 5692 5697 5698 5699 5703 5703 5705 5709 5707
5687 5696 5704 5712 5718 5723 5728 5733 5737 5740 5743 5747 5748 5750 5752 5752 5752 5751 5750 5748 5747 5746 5744 5741 5737 5732 5727 5720 5713 5705 5700 5695 5690 5687 5683 5683 5686 5689 5695 5696 5698 5700 5703 5705 5707 5707 5709
5683 5692 5700 5707 5714 5719 5724 5729 5733 5736 5740 5743 5745 5746 5747 5749 5748 5747 5746 5745 5744 5742 5739 5736 5732 5727 5721 5714 5706 5697 5691 5685 5680 5677 5675 5679 5681 5687 5694 5695 5697 5700 5704 5704 5705 5709 5712
Wind_Speed
28 30 29 28 28 28 27 27 24 22 19 17 16 15 16 15 14 13 12 12 13 13 13 14 14 14 14 14 15 15 18 20 22 23 24 26 26 27 29 31 31 30 29 31 30 30 33
29 27 23 23 22 29 27 25 24 22 18 17 15 16 16 16 15 14 14 13 13 14 15 15 15 15 15 14 17 19 21 24 25 27 28 29 29 32 34 33 35 31 29 26 25 27 34
32 27 30 27 29 26 24 24 23 21 17 16 16 15 15 15 16 16 15 15 16 16 17 15 15 15 16 20 21 22 24 26 28 30 32 34 35 36 35 33 34 33 31 27 29 33 36
27 28 26 21 21 28 28 22 21 19 16 16 15 15 14 16 16 17 15 15 16 16 15 14 15 18 20 22 24 27 29 31 33 33 34 33 32 31 31 30 29 27 26 24 20 26 28
18 20 19 21 22 22 21 19 18 17 16 16 15 15 16 16 15 15 14 13 14 14 16 17 17 19 23 26 29 32 33 33 32 29 28 27 26 27 26 23 24 25 24 24 23 27 30
22 15 17 17 16 16 17 17 16 17 16 15 15 14 15 14 12 12 11 11 13 16 17 19 21 23 26 29 31 31 27 26 25 23 21 21 21 21 22 22 22 22 22 23 23 25 23
18 16 15 11 10 14 14 15 15 15 15 14 13 11 12 9 8 10 10 12 15 18 20 23 24 27 29 27 23 20 17 17 18 17 17 16 16 17 19 21 23 24 26 27 24 27 30
13 11 13 16 15 12 13 13 14 14 12 11 11 8 6 7 8 10 12 14 17 21 24 27 26 25 21 18 18 16 15 15 13 14 15 16 17 19 20 21 23 25 27 28 31 34 36
14 15 17 19 17 14 12 12 13 12 11 11 9 7 8 9 10 13 16 20 24 26 23 19 16 13 13 13 14 13 13 13 13 14 15 17 18 20 22 22 22 26 31 34 37 39 38
19 14 15 16 14 12 11 12 11 11 11 10 8 6 7 10 14 17 21 25 22 18 15 13 12 11 11 10 11 11 10 12 14 16 17 19 19 19 21 25 28 30 33 35 37 38 37
19 14 15 15 13 13 14 13 13 13 12 10 7 6 10 14 19 22 23 16 12 10 7 7 7 7 8 8 9 11 14 15 17 18 19 19 19 20 22 26 32 36 36 35 35 35 32
18 17 14 13 14 15 14 13 13 13 11 8 8 10 14 18 21 15 10 7 5 4 4 4 6 7 8 9 11 15 15 16 18 18 21 22 24 25 25 27 31 38 36 33 31 28 19
21 17 17 16 17 16 14 13 12 12 9 9 9 12 17 17 12 6 3 2 1 3 5 6 7 10 10 11 12 14 15 16 18 19 21 25 28 30 30 32 29 36 35 32 24 10 12
21 20 19 18 18 16 14 13 11 10 9 9 10 13 15 8 5 4 1 1 3 5 6 7 8 11 12 13 11 15 17 20 20 21 20 21 25 28 32 36 33 30 31 26 15 10 10
21 20 20 20 18 16 14 12 10 10 9 7 10 11 7 4 2 1 1 2 4 6 8 9 9 9 12 15 17 16 18 18 19 19 23 25 25 33 33 35 33 27 30 19 11 10 4
22 22 22 20 18 17 15 12 10 9 7 9 10 6 2 2 1 2 2 4 6 7 7 8 10 13 16 15 16 18 18 22 24 27 29 30 30 29 32 28 33 31 25 10 5 3 5
24 23 22 21 20 17 15 13 11 10 7 7 5 3 3 2 1 3 3 3 4 6 9 12 13 13 14 16 18 20 23 25 27 29 32 35 35 31 34 30 24 24 6 6 5 2 4
26 25 22 20 18 16 16 15 12 11 10 6 4 4 4 1 3 4 3 3 6 10 10 8 10 13 15 18 22 25 26 28 29 32 34 35 35 32 33 32 20 10 2 3 3 4 6
29 26 23 21 19 18 18 16 13 11 9 6 6 6 5 3 2 1 3 7 10 9 6 8 11 14 16 20 23 26 29 30 33 36 37 36 34 31 33 22 12 7 13 4 2 5 6
29 27 26 23 20 20 18 15 13 12 9 7 7 8 6 3 3 3 6 10 9 5 6 9 11 15 18 21 25 29 31 34 36 37 36 31 34 33 22 13 7 3 5 7 4 9 4
32 29 26 23 21 20 18 16 14 12 9 8 8 9 7 3 3 5 8 10 3 4 6 8 12 16 20 24 28 31 33 37 36 35 35 33 32 24 14 7 4 6 4 3 3 3 2
33 30 29 28 25 22 19 16 15 12 11 10 9 8 6 4 4 7 11 9 7 6 8 10 14 19 23 25 29 32 35 36 33 34 33 33 26 15 6 12 13 13 4 3 4 4 3
34 32 30 28 25 22 19 17 15 14 12 11 10 8 7 6 6 9 13 9 6 8 10 13 18 22 24 28 31 35 36 37 34 32 32 26 13 5 15 16 13 9 13 6 9 9 5
34 33 31 29 26 24 20 19 15 15 14 12 10 8 7 6 7 12 12 8 7 8 12 17 21 23 25 29 33 36 38 36 33 32 29 17 2 6 13 16 12 12 7 9 5 13 12
36 34 32 29 27 25 22 19 18 17 15 13 11 9 7 7 10 13 12 9 9 11 13 17 22 23 26 31 36 37 35 34 33 29 24 17 2 8 15 13 10 10 5 6 4 14 13
37 34 32 29 28 25 22 20 19 17 15 13 11 10 8 8 11 13 11 8 10 14 18 20 22 24 29 34 37 37 34 33 34 31 21 14 5 7 16 12 10 12 4 3 5 10 20
38 35 33 30 27 24 22 21 20 18 15 14 12 10 9 10 12 13 10 9 11 14 19 21 23 27 32 36 40 38 34 31 34 29 18 10 7 9 14 7 9 24 15 6 3 10 21
38 35 33 29 26 24 23 21 20 18 17 15 12 11 10 10 12 12 11 11 13 18 20 22 25 30 34 39 42 41 35 33 37 28 16 6 12 14 11 11 14 21 14 7 6 13 17
38 36 33 29 27 25 24 23 21 19 17 15 13 12 10 10 12 13 11 13 16 20 22 23 27 32 37 41 45 44 40 42 38 24 11 11 18 18 19 11 14 15 9 7 19 19 16
Wind_Direction
250 248 247 250 253 253 252 254 252 253 258 259 258 251 249 252 253 252 247 245 247 247 248 253 256 261 268 274 276 279 284 284 285 285 283 285 286 286 288 289 286 287 289 289 294 299 292
250 246 241 238 255 259 251 251 252 249 248 254 251 247 250 257 259 254 252 251 251 254 255 261 264 267 268 271 273 282 284 286 289 291 290 293 293 292 293 287 286 287 284 280 274 270 269
235 245 248 249 247 253 255 249 246 244 242 248 248 246 253 258 263 261 256 258 257 255 257 257 262 264 268 274 280 286 290 293 295 294 293 292 294 294 291 289 292 293 294 287 279 284 283
236 244 246 236 244 246 245 239 238 237 233 235 243 247 257 263 266 262 257 257 259 263 264 265 267 270 272 278 286 293 298 298 296 293 292 296 295 293 295 298 297 299 299 294 281 279 281
220 235 225 235 241 239 237 231 229 233 232 232 232 239 247 255 264 264 266 270 271 268 270 271 274 279 286 291 296 298 299 294 295 297 299 297 297 299 301 300 297 299 295 292 288 296 298
214 230 211 237 231 228 225 226 221 223 222 223 233 237 248 255 256 258 258 257 259 265 269 277 283 289 294 297 299 300 298 297 296 300 302 302 306 305 302 304 298 292 294 298 303 307 307
202 207 208 215 214 223 220 212 216 211 214 223 232 234 238 233 238 246 254 267 275 280 286 292 294 296 300 300 301 302 305 309 311 311 311 316 308 304 307 307 310 312 314 316 311 306 303
188 193 190 201 203 214 213 205 208 210 214 221 216 206 208 219 228 251 265 278 288 295 297 296 296 296 296 298 301 307 313 315 318 315 318 319 319 320 317 322 318 313 311 304 301 305 306
201 198 212 213 206 200 203 202 207 207 198 196 187 182 200 228 254 272 287 296 299 299 299 299 301 301 303 307 313 320 324 322 320 326 327 324 322 318 319 315 305 301 301 303 306 308 312
204 198 204 202 196 194 201 200 193 191 187 186 173 196 242 268 284 290 300 301 299 293 288 292 293 299 305 320 322 324 323 323 326 324 321 318 317 316 312 304 305 303 302 308 312 312 308
184 184 197 193 185 191 191 186 185 188 185 186 204 258 281 292 297 299 299 290 288 288 295 294 308 313 320 325 320 318 322 320 320 318 314 315 311 308 302 303 303 303 308 316 319 313 306
183 198 198 196 189 197 192 190 192 186 187 207 249 276 292 305 306 295 285 278 294 304 320 324 332 323 324 327 325 318 319 320 317 316 313 312 308 304 307 305 307 311 324 325 318 309 300
187 192 194 195 198 196 192 194 193 195 206 232 266 293 303 304 293 284 272 274 323 341 335 335 333 322 326 324 322 316 319 316 314 313 315 314 312 313 313 311 324 319 323 326 317 295 300
193 199 200 198 196 198 194 195 201 205 221 252 281 301 300 287 273 256 211 301 329 347 344 339 329 318 321 322 324 320 320 320 323 322 318 314 309 312 314 320 327 323 329 328 320 318 322
198 196 198 199 194 197 199 196 202 210 236 266 303 298 282 263 252 241 287 329 346 341 324 325 331 327 323 325 327 331 326 322 325 324 322 320 324 320 322 324 325 327 318 317 311 318 329
195 194 197 192 192 196 192 188 207 223 242 287 289 277 242 190 121 56 354 332 332 329 328 330 325 323 329 337 341 338 341 334 331 328 324 323 327 327 322 324 320 325 319 303 285 345 348
199 195 196 195 193 196 196 200 214 222 257 283 281 219 193 164 39 351 355 356 338 328 325 320 323 332 336 341 343 343 341 335 332 328 325 327 329 329 324 322 315 312 297 330 316 29 29
201 198 196 197 200 199 201 206 211 228 257 288 246 200 212 218 3 349 3 334 326 324 326 341 357 350 348 348 346 344 342 337 336 332 329 328 332 326 321 320 309 271 262 337 53 55 45
203 203 201 199 202 204 204 206 217 229 253 271 237 220 230 268 316 310 302 319 325 329 338 347 352 351 350 349 347 344 340 339 337 333 334 333 329 325 324 321 307 258 233 178 81 89 22
204 201 202 199 202 204 205 213 221 232 251 247 227 222 229 261 282 286 312 326 328 339 346 345 350 351 350 350 347 342 342 340 336 333 335 332 326 327 331 326 295 280 185 172 121 53 13
204 205 205 201 204 208 209 215 221 230 243 229 222 223 232 255 265 290 316 324 313 333 341 338 345 348 347 343 341 340 340 339 335 335 337 330 331 333 342 6 53 110 117 147 174 143 11
205 205 203 204 207 205 213 211 213 231 226 222 221 224 231 256 274 297 314 300 278 309 321 329 335 344 342 339 337 337 337 335 337 339 333 334 331 344 68 105 110 105 67 115 181 155 355
203 206 205 206 210 210 210 210 218 227 224 221 218 223 239 257 273 298 308 291 269 294 322 337 343 341 336 335 334 335 335 335 341 338 332 331 335 40 130 132 126 88 108 125 123 134 99
203 206 206 208 209 209 210 210 222 222 223 222 219 228 247 267 288 302 304 285 283 314 334 340 341 336 332 331 332 331 334 336 340 336 332 335 323 164 169 150 99 143 107 100 157 128 140
203 206 206 207 209 209 212 212 222 220 224 220 224 236 252 265 280 302 305 295 305 320 330 338 335 330 328 327 331 332 333 333 338 337 333 336 256 190 195 160 38 185 131 100 115 130 145
202 205 207 207 211 211 212 216 221 221 223 224 229 238 251 267 287 301 307 302 311 322 331 333 328 325 327 330 328 329 331 334 339 337 327 320 272 211 215 198 112 149 147 109 93 128 154
201 204 208 210 210 210 213 217 220 220 226 228 232 241 251 265 292 307 311 304 306 320 325 329 327 327 328 326 326 329 330 333 336 334 322 290 216 190 227 203 153 168 158 199 143 150 151
200 204 207 209 208 208 214 217 217 219 230 238 243 248 252 268 287 303 311 309 315 323 326 325 326 324 325 326 324 326 329 331 331 327 312 247 189 174 193 166 148 175 192 185 208 176 157
201 204 206 206 208 209 213 216 217 219 230 240 248 253 261 275 288 304 309 316 320 324 324 322 324 323 323 324 323 324 329 329 324 313 285 189 174 168 174 183 165 174 167 182 169 164 152